Valparaiso, IN

11:25 PM CDT on March 23, 2017 (GMT -0500)
Porter County Municipal

Weather History for KVPZ - December, 2011

Change the Weather History Date:

Friday, December 30, 2011

  Actual Average Record
Temperature  
Mean Temperature 38 °F 25 °F  
Max Temperature 45 °F 32 °F 56 °F (2002)
Min Temperature 32 °F 18 °F -1 °F (1998)
Degree Days  
Heating Degree Days 26 40  
Month to date heating degree days 1103  
Since 1 July heating degree days 2361  
Cooling Degree Days 0 0  
Month to date cooling degree days 0  
Year to date cooling degree days 713  
Moisture  
Dew Point 41 °F    
Average Humidity 97    
Maximum Humidity 100    
Minimum Humidity 92    
Precipitation  
Precipitation 0.25 in 0.08 in 0.25 in (2011)
Month to date precipitation 2.11  
Year to date precipitation 37.44  
Sea Level Pressure  
Sea Level Pressure 29.57 in    
Wind  
Wind Speed 6 mph (South)    
Max Wind Speed 15 mph    
Max Gust Speed 22 mph    
Visibility 5 miles    
Events Rain    
T = Trace of Precipitation, MM = Missing Value Source: NWS Daily Summary

Daily Weather History Graph

Daily Weather History Graph

Search for Another Location

Airport or City:

Trip Planner

Search our weather history database for the weather conditions in past years. The results will help you decide how hot, cold, wet, or windy it might be!

Date:

Astronomy

Dec. 30, 2011 Rise Set
Actual Time 7:14 AM CST 4:27 PM CST
Civil Twilight 6:42 AM CST 4:58 PM CST
Nautical Twilight 6:07 AM CST 5:33 PM CST
Astronomical Twilight 5:34 AM CST 6:06 PM CST
Moon 10:28 AM CST (12/30) 11:07 PM CST (12/30)
Length of Visible Light 10h 15m
Length of Day
9h 13m
Waxing Crescent, 36% of the Moon is Illuminated
Dec 30
Waxing Crescent
Jan 1
First Quarter
Jan 9
Full
Jan 16
Last Quarter
Jan 23
New

Hourly Weather History & Observations

Time (CST) Temp. Windchill Dew Point Humidity Pressure Visibility Wind Dir Wind Speed Gust Speed Precip Events Conditions
12:53 AM 32.0 °F - 30.9 °F 96% 29.74 in 10.0 mi Calm Calm - N/A   Clear
1:53 AM 32.0 °F 28.7 °F 30.0 °F 92% 29.72 in 10.0 mi ENE 3.5 mph - N/A   Partly Cloudy
3:53 AM 34.0 °F 28.8 °F 33.1 °F 96% 29.71 in 10.0 mi East 5.8 mph - N/A   Overcast
4:53 AM 35.1 °F 31.0 °F 33.1 °F 92% 29.70 in 10.0 mi East 4.6 mph - N/A   Overcast
6:53 AM 37.0 °F 31.6 °F 36.0 °F 96% 29.65 in 4.0 mi East 6.9 mph - 0.05 in Rain Light Rain
7:53 AM 39.0 °F 33.4 °F 37.9 °F 96% 29.63 in 3.0 mi East 8.1 mph - 0.01 in   Overcast
8:03 AM 39.2 °F 33.6 °F 37.4 °F 93% 29.60 in 2.5 mi ESE 8.1 mph - N/A   Overcast
8:13 AM 39.2 °F 33.0 °F 39.2 °F 100% 29.59 in 3.0 mi East 9.2 mph - N/A   Overcast
8:37 AM 39.2 °F 32.0 °F 39.2 °F 100% 29.60 in 3.0 mi ESE 11.5 mph - N/A   Overcast
8:53 AM 41.0 °F 35.8 °F 39.9 °F 96% 29.61 in 4.0 mi ESE 8.1 mph - N/A   Overcast
9:24 AM 41.0 °F 35.2 °F 39.2 °F 93% 29.59 in 2.5 mi ESE 9.2 mph - N/A   Overcast
10:17 AM 42.8 °F 38.0 °F 42.8 °F 100% 29.55 in 3.0 mi ESE 8.1 mph - N/A   Overcast
10:40 AM 42.8 °F 37.5 °F 42.8 °F 100% 29.53 in 3.0 mi SE 9.2 mph - N/A   Overcast
10:53 AM 43.0 °F 37.2 °F 42.1 °F 97% 29.53 in 3.0 mi ESE 10.4 mph - N/A   Overcast
12:24 PM 44.6 °F 41.4 °F 42.8 °F 93% 29.46 in 1.8 mi SE 5.8 mph - 0.04 in Rain Light Rain
12:44 PM 44.6 °F 42.2 °F 44.6 °F 100% 29.45 in 1.5 mi SE 4.6 mph - 0.08 in Rain Light Rain
12:53 PM 44.1 °F 40.1 °F 44.1 °F 100% 29.46 in 1.8 mi SSE 6.9 mph - 0.09 in Rain Light Rain
1:00 PM 44.6 °F 40.7 °F 44.6 °F 100% 29.44 in 2.0 mi SSE 6.9 mph - 0.01 in Rain Light Rain
1:08 PM 44.6 °F 41.4 °F 44.6 °F 100% 29.44 in 2.0 mi SSE 5.8 mph - 0.02 in Rain Light Rain
1:22 PM 44.6 °F 40.7 °F 44.6 °F 100% 29.44 in 2.0 mi SSE 6.9 mph - 0.03 in Rain Light Rain
1:33 PM 44.6 °F 40.7 °F 44.6 °F 100% 29.44 in 2.5 mi South 6.9 mph - 0.04 in Rain Light Rain
1:40 PM 44.6 °F 40.2 °F 44.6 °F 100% 29.44 in 3.0 mi SSW 8.1 mph - 0.05 in Rain Light Rain
1:50 PM 44.6 °F 41.4 °F 44.6 °F 100% 29.44 in 3.0 mi SSW 5.8 mph - 0.06 in Rain Light Rain
1:53 PM 45.0 °F 41.8 °F 44.1 °F 97% 29.46 in 2.5 mi SSW 5.8 mph - 0.06 in Rain Light Rain
2:04 PM 44.6 °F 41.4 °F 44.6 °F 100% 29.45 in 3.0 mi SSW 5.8 mph - 0.01 in Rain Light Rain
2:53 PM 45.0 °F 41.8 °F 44.1 °F 97% 29.48 in 7.0 mi SSW 5.8 mph - 0.03 in   Overcast
3:07 PM 44.6 °F 41.4 °F 44.6 °F 100% 29.47 in 2.0 mi SSW 5.8 mph - N/A   Overcast
3:21 PM 44.6 °F 41.4 °F 44.6 °F 100% 29.48 in 3.0 mi SSW 5.8 mph - N/A   Overcast
3:53 PM 44.1 °F 39.0 °F 43.0 °F 96% 29.51 in 5.0 mi WSW 9.2 mph - N/A   Overcast
4:53 PM 44.1 °F 39.0 °F 43.0 °F 96% 29.54 in 9.0 mi WSW 9.2 mph - N/A   Overcast
5:53 PM 42.1 °F 34.5 °F 41.0 °F 96% 29.57 in 5.0 mi WSW 15.0 mph - N/A   Overcast
6:53 PM 41.0 °F 34.7 °F 39.9 °F 96% 29.61 in 9.0 mi SW 10.4 mph - 0.00 in Rain Light Rain
7:53 PM 39.9 °F 33.9 °F 39.9 °F 100% 29.63 in 5.0 mi WSW 9.2 mph - 0.01 in   Overcast
8:44 PM 39.2 °F 33.6 °F 39.2 °F 100% 29.64 in 4.0 mi West 8.1 mph - N/A   Overcast
8:53 PM 41.0 °F 36.4 °F 39.9 °F 96% 29.65 in 4.0 mi WNW 6.9 mph - N/A   Overcast
9:02 PM 41.0 °F 35.2 °F 41.0 °F 100% 29.65 in 1.8 mi NW 9.2 mph - N/A   Overcast
9:14 PM 41.0 °F 34.7 °F 39.2 °F 93% 29.66 in 3.0 mi NW 10.4 mph 17.3 mph N/A   Overcast
9:53 PM 39.9 °F 33.9 °F 39.0 °F 97% 29.69 in 6.0 mi NNW 9.2 mph - N/A   Overcast
10:07 PM 39.2 °F 33.0 °F 37.4 °F 93% 29.69 in 10.0 mi NNW 9.2 mph 21.9 mph N/A   Overcast
10:53 PM 39.0 °F 32.8 °F 37.9 °F 96% 29.73 in 10.0 mi NNW 9.2 mph 17.3 mph N/A   Overcast
11:53 PM 39.0 °F 33.4 °F 37.0 °F 93% 29.75 in 10.0 mi NW 8.1 mph - N/A   Overcast